Mount Juliet, Tennessee, United States (37121)
Lat: 36.20N, Lon: 86.52W
Wx Zone: TNZ028
Local Info
Past Weather Observations for Today

NOTE: This archive is for the closest National Weather Service station to Mount Juliet. Information may differ from the station used for current weather conditions.

Click here for Long-term Archive

Time Weather Temperature Dewpoint Humidity Pressure Winds Precip Visibility
18:53
Mostly Cloudy
37°F / 3°C 28°F / -2°C 70% 30.27 in
(1025 mb)
Calm - 10SM
17:53
Partly Cloudy
37°F / 3°C 28°F / -2°C 70% 30.27 in
(1025 mb)
NNW 3.5 mph
(NNW 6 kph)
- 10SM
16:53
Overcast
37°F / 3°C 28°F / -2°C 70% 30.27 in
(1025 mb)
Calm - 10SM
15:53
Overcast
39°F / 4°C 28°F / -2°C 65% 30.27 in
(1025 mb)
Calm - 10SM
15:19
Overcast
39°F / 4°C 28°F / -2°C 65% 30.27 in
(1025 mb)
Calm - 10SM
14:53
Overcast
39°F / 4°C 28°F / -2°C 65% 30.27 in
(1025 mb)
NW 5.8 mph
(NW 9 kph)
- 10SM
13:53
Mostly Cloudy
39°F / 4°C 28°F / -2°C 65% 30.24 in
(1024 mb)
Calm - 10SM
12:53
Overcast
39°F / 4°C 30°F / -1°C 70% 30.27 in
(1025 mb)
SSW 3.5 mph
(SSW 6 kph)
- 10SM
11:53
Overcast
37°F / 3°C 30°F / -1°C 75% 30.27 in
(1025 mb)
Variable 3.5 mph
(Variable 6 kph)
- 10SM
10:53
Overcast
37°F / 3°C 30°F / -1°C 75% 30.33 in
(1027 mb)
NE 6.9 mph
(NE 11 kph)
- 10SM
09:53
Overcast
37°F / 3°C 30°F / -1°C 75% 30.33 in
(1027 mb)
N 5.8 mph
(N 9 kph)
- 10SM
08:53
Overcast
37°F / 3°C 30°F / -1°C 75% 30.33 in
(1027 mb)
N 8.1 mph
(N 13 kph)
- 10SM
08:33
Overcast
37°F / 3°C 30°F / -1°C 75% 30.33 in
(1027 mb)
NW 5.8 mph
(NW 9 kph)
- 10SM
07:53
Overcast
37°F / 3°C 30°F / -1°C 75% 30.3 in
(1026 mb)
NW 9.2 mph
(NW 15 kph)
- 10SM
07:37
Overcast
37°F / 3°C 32°F / 0°C 81% 30.3 in
(1026 mb)
NW 10.4 mph
(NW 17 kph)
- 10SM
06:53
Overcast
37°F / 3°C 34°F / 1°C 87% 30.27 in
(1025 mb)
NNW 5.8 mph
(NNW 9 kph)
- 10SM
06:19
Overcast
37°F / 3°C 34°F / 1°C 87% 30.27 in
(1025 mb)
NW 5.8 mph
(NW 9 kph)
- 10SM
05:53
Overcast
37°F / 3°C 34°F / 1°C 87% 30.27 in
(1025 mb)
NW 4.6 mph
(NW 7 kph)
- 10SM
05:24
Overcast
37°F / 3°C 34°F / 1°C 87% 30.27 in
(1025 mb)
NNW 5.8 mph
(NNW 9 kph)
- 10SM
04:53
Overcast
37°F / 3°C 34°F / 1°C 87% 30.27 in
(1025 mb)
NW 5.8 mph
(NW 9 kph)
- 10SM
03:53
Overcast
37°F / 3°C 36°F / 2°C 93% 30.27 in
(1025 mb)
NW 6.9 mph
(NW 11 kph)
- 10SM
02:53
Overcast
39°F / 4°C 36°F / 2°C 87% 30.27 in
(1025 mb)
NW 6.9 mph
(NW 11 kph)
- 10SM
02:14
Overcast
39°F / 4°C 37°F / 3°C 93% 30.27 in
(1025 mb)
NNW 6.9 mph
(NNW 11 kph)
- 10SM
01:53
Overcast
39°F / 4°C 37°F / 3°C 93% 30.24 in
(1024 mb)
NNW 6.9 mph
(NNW 11 kph)
0.01 in
(0.25 mm)
7SM
01:38
Overcast
Fog And Mist
39°F / 4°C 37°F / 3°C 93% 30.24 in
(1024 mb)
NNW 5.8 mph
(NNW 9 kph)
0.01 in
(0.25 mm)
5SM
01:12
Overcast
Light Rain
39°F / 4°C 37°F / 3°C 93% 30.24 in
(1024 mb)
N 8.1 mph
(N 13 kph)
0.01 in
(0.25 mm)
5SM
01:03
Overcast
Light Rain
39°F / 4°C 37°F / 3°C 93% 30.24 in
(1024 mb)
NW 5.8 mph
(NW 9 kph)
0.01 in
(0.25 mm)
4SM
00:53
Overcast
41°F / 5°C 37°F / 3°C 87% 30.24 in
(1024 mb)
NW 6.9 mph
(NW 11 kph)
- 9SM
00:27
Overcast
41°F / 5°C 37°F / 3°C 87% 30.24 in
(1024 mb)
W 5.8 mph
(W 9 kph)
- 8SM
Time Weather Temperature Dewpoint Humidity Pressure Winds Precip Visibility


Weather for websites

WeatherForYou.com, LLC is not responsible for any damages or problems caused by this service. Current weather conditions are obtained from the closest station including government and personal stations which may have varying degrees of accuracy. Weather forecasts are derived from the NOAA NDFD. Like all things, this site belongs to Jesus Christ... He just trusts me to maintain it. If you have any questions or comments email webmaster@weatherforyou.com

Copyright © 2014, WeatherForYou.com LLC. All rights reserved.